Home   Weather   Cali   Past weeks

Flag for Colombia Past Weather in Cali, Colombia — Yesterday and Last 2 Weeks

Now
66 °F

Passing clouds.


Feels Like: 66 °F
Forecast: 67 / 84 °F
Wind: 3 mph from Southeast

Location: Cali / Alfonso Bonillaaragon

Current Time: May 22, 2017 at 11:57:31 pm

Latest Report: May 22, 2017 at 11:00 pm


Visibility: 6 mi

Pressure: 30.07 "Hg (26.89 "Hg at 955m altitude)

Humidity: 100%

Dew Point: 66 °F

Location of CaliLocation

Past Weather in Cali — Graph

°F

Cali Temperature Yesterday

Maximum temperature yesterday: 86 °F (at 2:00 pm)
Minimum temperature yesterday: 70 °F (at 12:00 am)
Average temperature yesterday: 76 °F

High & Low Weather Summary for the Past Weeks

 TemperatureHumidityPressure
High88 °F (May 17, 2:00 pm)100% (May 7, 10:00 pm)30.15 "Hg (May 7, 10:00 pm)
Low66 °F (May 11, 2:00 am)51% (May 11, 3:00 pm)29.76 "Hg (May 19, 4:00 pm)
Average73 °F88%30.01 "Hg
* Reported May 7 10:00 pm — May 22 10:00 pm, Cali. Weather by CustomWeather, © 2017

Note: Actual official high and low records may vary slightly from our data, if they occured in-between our weather recording intervals... More about our weather records

Advertising

Cali Weather History for the Previous 24 Hours

Scroll right to see more
 ConditionsComfort  
Time TempWeatherWind HumidityBarometerVisibility
10:00 pm
Mon, May 22
68 °FPassing clouds.3 mph100%30.07 "Hg6 mi
9:00 pm66 °FClear.6 mph100%30.05 "HgN/A
8:00 pm68 °FPassing clouds.5 mph100%30.03 "HgN/A
7:00 pm70 °FPassing clouds.3 mph94%30.00 "HgN/A
6:00 pm73 °FScattered clouds.3 mph83%29.98 "HgN/A
5:00 pm77 °FBroken clouds.No wind74%29.97 "HgN/A
4:00 pm77 °FScattered showers. Scattered clouds.3 mph79%29.97 "HgN/A
3:00 pm75 °FScattered showers. More clouds than sun.3 mph83%30.03 "Hg5 mi
2:00 pm73 °FDrizzle. More clouds than sun.5 mph94%30.03 "Hg4 mi
1:10 pm73 °FDrizzle. Mostly cloudy.5 mph89%30.06 "Hg4 mi
1:00 pm73 °FDrizzle. Broken clouds.5 mph94%30.07 "Hg4 mi
12:00 pm73 °FDrizzle. Mostly cloudy.3 mph94%30.09 "Hg2 mi
11:30 am73 °FDrizzle. Mostly cloudy.2 mph89%30.10 "Hg2 mi
11:00 am73 °FDrizzle. More clouds than sun.No wind94%30.10 "Hg5 mi
10:00 am73 °FBroken clouds.No wind94%30.10 "Hg6 mi
9:00 am72 °FBroken clouds.No wind94%30.10 "Hg6 mi
8:00 am70 °FBroken clouds.No wind100%30.08 "Hg6 mi
7:00 am68 °FPartly sunny.No wind100%30.07 "Hg6 mi
6:00 am68 °FPartly sunny.2 mph100%30.04 "HgN/A
5:30 am68 °FPassing clouds.2 mph100%30.03 "HgN/A
5:00 am68 °FFog.No wind100%30.03 "HgN/A
4:00 am68 °FPartly cloudy.5 mph100%30.03 "Hg5 mi
3:00 am70 °FPartly cloudy.6 mph100%30.02 "Hg5 mi
2:00 am70 °FPartly cloudy.2 mph100%30.03 "HgN/A
1:00 am70 °FPartly cloudy.2 mph100%30.04 "HgN/A
12:00 am70 °FPassing clouds.2 mph100%30.05 "HgN/A
11:00 pm
Sun, May 21
70 °FPartly cloudy.2 mph100%30.06 "HgN/A
Weather by CustomWeather, © 2017

See weather overviewHow to use our weather pages